Flag for Chile Weather past 2 weeks in Antofagasta, Chile

Now
61 °F

Passing clouds.


Feels Like: 61 °F
Forecast: 62 / 74 °F
Wind: 7 mph from Southwest

Location: Antofagasta Airport

Current Time: Dec 22, 2014 at 2:41:19 AM

Latest Report: Dec 22, 2014 at 2:00 AM


Visibility: N/A

Pressure: 29.98 "Hg

Humidity: 83%

Dew point: 55 °F

Location of AntofagastaLocation

Historic Weather in Antofagasta — Graph

°F

Antofagasta temperature yesterday

Maximum temperature yesterday: 68 °F (at 12:00 PM)
Minimum temperature yesterday: 57 °F (at 6:00 AM)
Average temperature yesterday: 63 °F

Past Weeks' High & Low Weather Summary

 TemperatureHumidityPressure
High72 °F (Dec 9, 11:00 AM)88% (Dec 7, 2:00 AM)30.07 "Hg (Dec 7, 2:00 AM)
Low57 °F (Dec 16, 6:00 AM)47% (Dec 9, 11:00 AM)29.83 "Hg (Dec 8, 5:00 PM)
Average64 °F69%29.97 "Hg
* Reported Dec 7 1:00 AM — Dec 22 1:00 AM, Antofagasta, Weather by CustomWeather, © 2014

Note: Actual official high and low records may vary slightly from our data, if they occured in-between our weather recording intervals... More about our weather records

Advertising

Antofagasta weather history for previous 24 hours

 ConditionsComfort  
Time TempWeatherWind HumidityBarometerVisibility
1:00 AM
Dec 22
59 °FPassing clouds.8 mph82%30.01 "HgN/A
12:00 AM61 °FPassing clouds.10 mph77%30.01 "HgN/A
11:00 PM
Dec 21
61 °FPassing clouds.9 mph77%30.01 "HgN/A
10:00 PM61 °FPassing clouds.10 mph77%30.01 "HgN/A
9:00 PM63 °FPassing clouds.13 mph73%29.98 "HgN/A
8:00 PM63 °FScattered clouds.15 mph68%29.98 "HgN/A
7:00 PM66 °FScattered clouds.16 mph60%29.95 "HgN/A
6:00 PM66 °FPassing clouds.17 mph64%29.95 "HgN/A
5:00 PM66 °FPassing clouds.18 mph56%29.98 "HgN/A
4:00 PM68 °FPassing clouds.17 mph53%29.98 "HgN/A
3:00 PM68 °FPassing clouds.16 mph56%29.98 "HgN/A
2:00 PM68 °FPassing clouds.16 mph53%30.01 "HgN/A
1:00 PM66 °FPassing clouds.17 mph60%30.01 "HgN/A
12:00 PM68 °FPassing clouds.9 mph53%29.98 "HgN/A
11:00 AM66 °FPassing clouds.7 mph56%30.01 "HgN/A
10:00 AM63 °FScattered clouds.3 mph73%30.01 "HgN/A
9:00 AM61 °FScattered clouds.6 mph77%30.01 "HgN/A
8:00 AM59 °FScattered clouds.9 mph88%29.98 "HgN/A
7:00 AM59 °FPassing clouds.6 mph82%29.98 "HgN/A
6:00 AM57 °FPassing clouds.7 mph88%29.95 "HgN/A
5:00 AM59 °FPassing clouds.7 mph88%29.95 "HgN/A
4:00 AM59 °FPassing clouds.6 mph82%29.95 "HgN/A
3:00 AM61 °FClear.10 mph83%29.95 "Hg10 mi
2:00 AM61 °FClear.10 mph77%29.98 "Hg10 mi
Weather by CustomWeather, © 2014

See weather overviewHow to use our weather pages